EW7468 Weather Reports


Display with metric or nautical units.
time (UTC)temp
F
wind
direction
speed
MPH
gust
MPH
rain 1hr
in
rain 24hr
in
rain mn
in
humidity
%
barometer
mb
20190521061411 77 127 0.0 0.0 0.00 0.00 0.00 82 1012.0
20190521060411 77 128 0.0 0.0 0.00 0.00 0.00 82 1012.2
20190521055411 77 101 0.0 0.0 0.00 0.00 0.00 81 1012.2
20190521054411 77 100 0.0 0.0 0.00 0.00 0.00 81 1012.4
20190521053411 77 88 0.0 0.0 0.00 0.00 0.00 81 1012.5
20190521052411 77 125 0.0 0.0 0.00 0.00 0.00 81 1012.7
20190521051412 77 125 0.0 0.0 0.00 0.00 0.00 81 1012.8
20190521050411 77 107 0.0 0.0 0.00 0.00 0.00 82 1012.9
20190521045412 77 129 0.0 0.0 0.00 0.00 0.00 82 1013.2
20190521044411 77 124 0.0 0.0 0.00 0.00 0.00 83 1013.3
20190521043411 77 104 0.0 0.0 0.00 0.00 0.00 83 1013.2
20190521042411 77 128 0.0 0.0 0.00 0.00 0.00 82 1013.3
20190521041411 77 128 0.0 0.0 0.00 0.00 0.00 82 1013.4
20190521040411 77 128 0.0 0.0 0.00 0.00 0.00 82 1013.5
20190521035411 78 132 0.0 0.0 0.00 0.00 0.00 82 1013.4
20190521034411 78 132 0.0 0.0 0.00 0.00 0.00 81 1013.5
20190521033411 78 131 0.0 0.0 0.00 0.00 0.00 80 1013.5
20190521032412 79 133 0.0 1.0 0.00 0.00 0.00 80 1013.5
20190521031412 79 96 0.0 1.0 0.00 0.00 0.00 79 1013.6
20190521030411 80 82 0.0 3.0 0.00 0.00 0.00 78 1013.4
20190521025412 80 91 0.0 2.0 0.00 0.00 0.00 78 1013.4
20190521024412 80 22 0.0 2.0 0.00 0.00 0.00 76 1013.0
20190521023411 80 14 0.0 3.0 0.00 0.00 0.00 78 1012.9
20190521022412 81 348 0.0 6.0 0.00 0.00 0.00 78 1013.0
20190521021412 80 355 0.0 4.0 0.00 0.00 0.00 77 1012.9
20190521020411 81 345 0.0 4.0 0.00 0.00 0.00 77 1012.8
20190521015412 81 343 0.0 4.0 0.00 0.00 0.00 76 1012.7
20190521014412 81 335 0.0 5.0 0.00 0.00 0.00 77 1012.7
20190521013412 81 336 0.0 4.0 0.00 0.00 0.00 76 1012.6
20190521012412 81 333 0.0 9.0 0.00 0.00 0.00 74 1012.5
20190521011412 81 355 0.0 8.0 0.00 0.00 0.00 73 1012.3
20190521010412 81 5 0.0 7.0 0.00 0.00 0.00 74 1012.3
20190521005412 81 28 2.0 5.0 0.00 0.00 0.00 74 1012.3
20190521004412 81 355 1.0 6.0 0.00 0.00 0.00 73 1012.3
20190521003412 81 348 0.0 8.0 0.00 0.00 0.00 72 1012.3
20190521002412 82 355 8.0 8.0 0.00 0.00 0.00 72 1012.2
20190521001412 82 37 3.0 8.0 0.00 0.00 0.00 73 1012.2
20190521000412 82 349 4.0 9.0 0.00 0.00 0.00 72 1012.3
20190520235412 83 336 0.0 11.0 0.00 0.00 0.00 71 1012.2
20190520234412 83 335 1.0 10.0 0.00 0.00 0.00 71 1012.2
20190520233412 83 360 1.0 10.0 0.00 0.00 0.00 72 1012.2
20190520232412 84 5 5.0 10.0 0.00 0.00 0.00 71 1012.2
20190520231412 85 321 2.0 9.0 0.00 0.00 0.00 70 1012.2
20190520230412 85 11 1.0 9.0 0.00 0.00 0.00 69 1012.1
20190520225413 86 40 2.0 10.0 0.00 0.00 0.00 69 1012.3
20190520224412 86 337 1.0 9.0 0.00 0.00 0.00 71 1012.3
20190520223412 86 349 11.0 11.0 0.00 0.00 0.00 68 1012.3
20190520222413 86 324 1.0 10.0 0.00 0.00 0.00 70 1012.4
20190520221413 86 355 3.0 10.0 0.00 0.00 0.00 70 1012.5
20190520220412 86 18 4.0 12.0 0.00 0.00 0.00 70 1012.6
20190520215413 86 360 1.0 11.0 0.00 0.00 0.00 69 1012.6
20190520214413 87 5 3.0 11.0 0.00 0.00 0.00 70 1012.5
20190520213412 87 286 7.0 12.0 0.00 0.00 0.00 70 1012.7
20190520212413 88 10 4.0 11.0 0.00 0.00 0.00 68 1012.7
20190520211413 88 336 1.0 11.0 0.00 0.00 0.00 67 1012.7
20190520210413 88 304 4.0 10.0 0.00 0.00 0.00 67 1012.6
20190520205413 88 298 4.0 10.0 0.00 0.00 0.00 69 1012.7
20190520204413 88 350 6.0 12.0 0.00 0.00 0.00 69 1012.7
20190520203413 88 14 4.0 13.0 0.00 0.00 0.00 68 1012.8
20190520202413 88 321 6.0 13.0 0.00 0.00 0.00 69 1012.9
20190520201413 88 346 4.0 13.0 0.00 0.00 0.00 69 1012.9
20190520200413 88 15 4.0 12.0 0.00 0.00 0.00 68 1013.1
20190520195413 89 351 4.0 13.0 0.00 0.00 0.00 66 1013.1
20190520194413 89 342 8.0 11.0 0.00 0.00 0.00 66 1013.2
20190520193413 89 226 4.0 11.0 0.00 0.00 0.00 66 1013.3
20190520192413 89 342 4.0 12.0 0.00 0.00 0.00 68 1013.5
20190520191413 89 324 6.0 12.0 0.00 0.00 0.00 65 1013.6
20190520190413 89 290 5.0 11.0 0.00 0.00 0.00 66 1013.7
20190520185413 89 326 5.0 10.0 0.00 0.00 0.00 68 1013.9
20190520184413 89 314 8.0 10.0 0.00 0.00 0.00 67 1014.0
20190520183413 88 19 8.0 12.0 0.00 0.00 0.00 67 1014.2
20190520182413 89 317 3.0 11.0 0.00 0.00 0.00 68 1014.3
20190520181413 88 294 5.0 10.0 0.00 0.00 0.00 68 1014.4
20190520180413 88 355 3.0 12.0 0.00 0.00 0.00 70 1014.5
20190520175413 88 48 2.0 12.0 0.00 0.00 0.00 69 1014.6
20190520174413 88 296 8.0 10.0 0.00 0.00 0.00 69 1014.6
20190520173414 89 295 0.0 10.0 0.00 0.00 0.00 67 1014.7
20190520172413 89 344 8.0 9.0 0.00 0.00 0.00 67 1014.8
20190520171413 88 346 9.0 10.0 0.00 0.00 0.00 67 1014.8
20190520170413 88 346 4.0 10.0 0.00 0.00 0.00 68 1015.0
20190520165414 88 5 0.0 10.0 0.00 0.00 0.00 67 1015.0
20190520164413 88 360 6.0 10.0 0.00 0.00 0.00 65 1015.2
20190520163414 87 320 8.0 10.0 0.00 0.00 0.00 67 1015.2
20190520162414 87 321 0.0 10.0 0.00 0.00 0.00 67 1015.4
20190520161414 88 355 5.0 10.0 0.00 0.00 0.00 67 1015.4
20190520160414 88 355 5.0 10.0 0.00 0.00 0.00 65 1015.5
20190520155414 88 342 0.0 8.0 0.00 0.00 0.00 66 1015.5
20190520154414 87 344 9.0 9.0 0.00 0.00 0.00 66 1015.6
20190520153414 85 348 4.0 8.0 0.00 0.00 0.00 68 1015.6
20190520152414 84 333 3.0 8.0 0.00 0.00 0.00 70 1015.5
20190520151414 85 324 0.0 6.0 0.00 0.00 0.00 71 1015.5
20190520150414 85 286 4.0 8.0 0.00 0.00 0.00 70 1015.5
20190520145414 85 340 0.0 5.0 0.00 0.00 0.00 69 1015.5
20190520144414 86 87 0.0 0.0 0.00 0.00 0.00 64 1015.4
20190520143414 86 145 0.0 3.0 0.00 0.00 0.00 66 1015.3
20190520142414 85 114 1.0 6.0 0.00 0.00 0.00 66 1015.3
20190520141414 85 67 0.0 0.0 0.00 0.00 0.00 67 1015.3
20190520140414 84 92 0.0 4.0 0.00 0.00 0.00 68 1015.4
20190520135414 84 123 0.0 6.0 0.00 0.00 0.00 70 1015.4
20190520134414 83 140 0.0 2.0 0.00 0.00 0.00 72 1015.4
20190520133414 82 115 0.0 4.0 0.00 0.00 0.00 74 1015.5
20190520132414 82 76 0.0 4.0 0.00 0.00 0.00 75 1015.6
20190520131414 81 123 0.0 4.0 0.00 0.00 0.00 76 1015.6
20190520130414 80 161 0.0 3.0 0.00 0.00 0.00 79 1015.5
20190520125414 79 159 0.0 4.0 0.00 0.00 0.00 80 1015.4
20190520124414 79 98 0.0 1.0 0.00 0.00 0.00 83 1015.4
20190520123414 78 70 0.0 4.0 0.00 0.00 0.00 84 1015.3
20190520122414 77 94 0.0 3.0 0.00 0.00 0.00 86 1015.3
20190520121414 76 91 0.0 2.0 0.00 0.00 0.00 88 1015.2
20190520120414 75 117 3.0 4.0 0.00 0.00 0.00 89 1015.3
20190520115414 74 136 0.0 1.0 0.00 0.00 0.00 90 1015.2
20190520114414 74 111 0.0 2.0 0.00 0.00 0.00 90 1015.1
20190520113414 74 104 0.0 1.0 0.00 0.00 0.00 90 1015.0
20190520112414 73 129 0.0 0.0 0.00 0.00 0.00 90 1014.9
20190520111415 73 132 0.0 0.0 0.00 0.00 0.00 90 1015.0
20190520110415 73 86 0.0 0.0 0.00 0.00 0.00 90 1014.9
20190520105415 73 91 0.0 0.0 0.00 0.00 0.00 90 1014.8
20190520104415 73 115 0.0 0.0 0.00 0.00 0.00 90 1014.7
20190520103415 73 132 0.0 0.0 0.00 0.00 0.00 90 1014.7
20190520102415 73 97 0.0 0.0 0.00 0.00 0.00 90 1014.6
20190520101415 73 113 0.0 0.0 0.00 0.00 0.00 89 1014.5
20190520100415 73 101 0.0 0.0 0.00 0.00 0.00 89 1014.5
20190520095415 73 111 0.0 1.0 0.00 0.00 0.00 89 1014.5
20190520094415 73 110 0.0 0.0 0.00 0.00 0.00 89 1014.4
20190520093415 73 80 0.0 0.0 0.00 0.00 0.00 89 1014.5
20190520092415 73 123 0.0 0.0 0.00 0.00 0.00 89 1014.4
20190520091415 73 124 0.0 0.0 0.00 0.00 0.00 89 1014.4
20190520090415 73 91 0.0 0.0 0.00 0.00 0.00 88 1014.3
20190520085415 73 90 0.0 1.0 0.00 0.00 0.00 88 1014.2
20190520084415 73 113 0.0 0.0 0.00 0.00 0.00 88 1014.2
20190520083415 73 96 0.0 3.0 0.00 0.00 0.00 88 1014.2
20190520082415 73 93 0.0 0.0 0.00 0.00 0.00 88 1014.1
20190520081415 73 94 0.0 0.0 0.00 0.00 0.00 87 1014.1
20190520080415 73 128 0.0 0.0 0.00 0.00 0.00 87 1014.1
20190520075415 73 94 0.0 0.0 0.00 0.00 0.00 86 1014.0
20190520074415 74 103 0.0 0.0 0.00 0.00 0.00 86 1014.0
20190520073415 74 99 0.0 1.0 0.00 0.00 0.00 85 1014.1
20190520072416 74 96 0.0 0.0 0.00 0.00 0.00 85 1014.0
20190520071415 74 95 0.0 0.0 0.00 0.00 0.00 84 1014.0
20190520070415 74 94 0.0 0.0 0.00 0.00 0.00 84 1014.0
20190520065415 74 105 0.0 0.0 0.00 0.00 0.00 84 1014.1
20190520064415 74 105 0.0 0.0 0.00 0.00 0.00 84 1014.2
20190520063416 74 105 0.0 0.0 0.00 0.00 0.00 85 1014.3
20190520062415 74 105 0.0 0.0 0.00 0.00 0.00 86 1014.5